Location: Observatoire
(46.1952°N, 5.3391°E)
Time: 21:53:36
(UTC+01:00)

Tiros 1 despin weight - Pass Details

Date: 18 February 2026
Orbit: 556 x 593 km, 48.2° (Epoch: 3 March)

Event Time Altitude Azimuth Distance (km) Brightness Sun altitude
Rises 19:47:36 0° 286° (WNW) 2,734 ? -17.7°
Reaches altitude 10° 19:49:51 10° 286° (WNW) 1,838 ? -18.1°
Maximum altitude 19:54:03 83° 198° (SSW) 565 ? -18.8°
Enters shadow 19:55:14 46° 116° (ESE) 752 ? -19.0°
Drops below altitude 10° 19:58:15 10° 112° (ESE) 1,841 - -19.6°
Sets 20:00:31 0° 111° (ESE) 2,740 - -20.0°
